contact:dominique.lefevre@mio.osupytheas.fr, maurice.libes@osupytheas.fr, didier.mallarino@osupytheas.fr
Project:EMSO http://www.emso-fr.org/EMSO-France
Depth: 2436.0 m
Title:EMSO Ligure Ouest : Data MII capteur MICROCAT
DateTime_Computer,Latitude,Longitude,Temperature,Conductivity,Pressure,DateTime_Instrument
DateTime_Computer,Latitude,Longitude,degC,S m-1,dbar,DateTime_Instrument
2023-08-23T00:01:39Z,42.805,6.029,13.3065,4.60125,2470.777,2023-8-23T02:03:59Z
2023-08-23T00:04:42Z,42.805,6.029,13.3071,4.60125,2470.763,2023-8-23T02:07:02Z
2023-08-23T00:07:45Z,42.805,6.029,13.3062,4.60127,2470.763,2023-8-23T02:10:05Z
2023-08-23T00:10:48Z,42.805,6.029,13.3067,4.60123,2470.74,2023-8-23T02:13:08Z
2023-08-23T00:13:51Z,42.805,6.029,13.3083,4.60140,2470.754,2023-8-23T02:16:11Z
2023-08-23T00:16:54Z,42.805,6.029,13.3069,4.60135,2470.754,2023-8-23T02:19:14Z
2023-08-23T00:19:57Z,42.805,6.029,13.3070,4.60127,2470.74,2023-8-23T02:22:17Z
2023-08-23T00:23:00Z,42.805,6.029,13.3076,4.60119,2470.717,2023-8-23T02:25:20Z
2023-08-23T00:26:03Z,42.805,6.029,13.3075,4.60114,2470.754,2023-8-23T02:28:23Z
2023-08-23T00:29:06Z,42.805,6.029,13.3077,4.60132,2470.74,2023-8-23T02:31:26Z
2023-08-23T00:32:10Z,42.805,6.029,13.3077,4.60130,2470.74,2023-8-23T02:34:30Z
2023-08-23T00:35:13Z,42.805,6.029,13.3072,4.60122,2470.777,2023-8-23T02:37:33Z
2023-08-23T00:38:16Z,42.805,6.029,13.3070,4.60122,2470.74,2023-8-23T02:40:36Z
2023-08-23T00:41:19Z,42.805,6.029,13.3074,4.60125,2470.74,2023-8-23T02:43:39Z
2023-08-23T00:44:22Z,42.805,6.029,13.3085,4.60122,2470.74,2023-8-23T02:46:42Z
2023-08-23T00:47:25Z,42.805,6.029,13.3069,4.60113,2470.717,2023-8-23T02:49:45Z
2023-08-23T00:50:28Z,42.805,6.029,13.3069,4.60114,2470.754,2023-8-23T02:52:48Z
2023-08-23T00:53:31Z,42.805,6.029,13.3061,4.60122,2470.717,2023-8-23T02:55:51Z
2023-08-23T00:56:34Z,42.805,6.029,13.3068,4.60113,2470.717,2023-8-23T02:58:54Z
2023-08-23T00:59:37Z,42.805,6.029,13.3063,4.60122,2470.73,2023-8-23T03:01:57Z
2023-08-23T01:02:40Z,42.805,6.029,13.3070,4.60120,2470.74,2023-8-23T03:05:00Z
2023-08-23T01:05:43Z,42.805,6.029,13.3063,4.60123,2470.74,2023-8-23T03:08:03Z
2023-08-23T01:08:47Z,42.805,6.029,13.3079,4.60113,2470.717,2023-8-23T03:11:07Z
2023-08-23T01:11:50Z,42.805,6.029,13.3076,4.60119,2470.717,2023-8-23T03:14:10Z
2023-08-23T01:14:53Z,42.805,6.029,13.3068,4.60127,2470.73,2023-8-23T03:17:13Z
2023-08-23T01:17:56Z,42.805,6.029,13.3088,4.60120,2470.693,2023-8-23T03:20:16Z
2023-08-23T01:20:59Z,42.805,6.029,13.3070,4.60117,2470.717,2023-8-23T03:23:19Z
2023-08-23T01:24:02Z,42.805,6.029,13.3069,4.60124,2470.707,2023-8-23T03:26:22Z
2023-08-23T01:27:05Z,42.805,6.029,13.3069,4.60133,2470.717,2023-8-23T03:29:25Z
2023-08-23T01:30:08Z,42.805,6.029,13.3076,4.60121,2470.707,2023-8-23T03:32:28Z
2023-08-23T01:33:11Z,42.805,6.029,13.3071,4.60122,2470.693,2023-8-23T03:35:31Z
2023-08-23T01:36:14Z,42.805,6.029,13.3070,4.60118,2470.73,2023-8-23T03:38:34Z
2023-08-23T01:39:17Z,42.805,6.029,13.3060,4.60119,2470.707,2023-8-23T03:41:37Z
2023-08-23T01:42:21Z,42.805,6.029,13.3061,4.60125,2470.67,2023-8-23T03:44:40Z
2023-08-23T01:45:24Z,42.805,6.029,13.3067,4.60119,2470.693,2023-8-23T03:47:44Z
2023-08-23T01:48:27Z,42.805,6.029,13.3058,4.60120,2470.707,2023-8-23T03:50:47Z
2023-08-23T01:51:30Z,42.805,6.029,13.3061,4.60117,2470.67,2023-8-23T03:53:50Z
2023-08-23T01:54:33Z,42.805,6.029,13.3067,4.60123,2470.717,2023-8-23T03:56:53Z
2023-08-23T01:57:36Z,42.805,6.029,13.3061,4.60118,2470.684,2023-8-23T03:59:56Z
2023-08-23T02:00:39Z,42.805,6.029,13.3066,4.60124,2470.693,2023-8-23T04:02:59Z
2023-08-23T02:03:42Z,42.805,6.029,13.3069,4.60113,2470.707,2023-8-23T04:06:02Z
2023-08-23T02:06:45Z,42.805,6.029,13.3056,4.60122,2470.693,2023-8-23T04:09:05Z
2023-08-23T02:09:48Z,42.805,6.029,13.3077,4.60121,2470.693,2023-8-23T04:12:08Z
2023-08-23T02:12:51Z,42.805,6.029,13.3067,4.60118,2470.67,2023-8-23T04:15:11Z
2023-08-23T02:15:54Z,42.805,6.029,13.3060,4.60123,2470.67,2023-8-23T04:18:14Z
2023-08-23T02:18:57Z,42.805,6.029,13.3070,4.60127,2470.684,2023-8-23T04:21:17Z
2023-08-23T02:22:01Z,42.805,6.029,13.3077,4.60175,2470.67,2023-8-23T04:24:21Z
2023-08-23T02:25:04Z,42.805,6.029,13.3095,4.60133,2470.693,2023-8-23T04:27:24Z
2023-08-23T02:28:07Z,42.805,6.029,13.3076,4.60142,2470.661,2023-8-23T04:30:27Z
2023-08-23T02:31:10Z,42.805,6.029,13.3068,4.60128,2470.67,2023-8-23T04:33:30Z
2023-08-23T02:34:13Z,42.805,6.029,13.3082,4.60129,2470.707,2023-8-23T04:36:33Z
2023-08-23T02:37:16Z,42.805,6.029,13.3076,4.60114,2470.661,2023-8-23T04:39:36Z
2023-08-23T02:40:19Z,42.805,6.029,13.3069,4.60128,2470.646,2023-8-23T04:42:39Z
2023-08-23T02:43:22Z,42.805,6.029,13.3081,4.60122,2470.646,2023-8-23T04:45:42Z
2023-08-23T02:46:25Z,42.805,6.029,13.3071,4.60125,2470.67,2023-8-23T04:48:45Z
2023-08-23T02:49:28Z,42.805,6.029,13.3055,4.60122,2470.661,2023-8-23T04:51:48Z
2023-08-23T02:52:31Z,42.805,6.029,13.3067,4.60119,2470.693,2023-8-23T04:54:51Z
2023-08-23T02:55:35Z,42.805,6.029,13.3054,4.60127,2470.67,2023-8-23T04:57:54Z
2023-08-23T02:58:38Z,42.805,6.029,13.3062,4.60124,2470.661,2023-8-23T05:00:58Z
2023-08-23T03:01:41Z,42.805,6.029,13.3054,4.60124,2470.661,2023-8-23T05:04:01Z
2023-08-23T03:04:44Z,42.805,6.029,13.3077,4.60140,2470.646,2023-8-23T05:07:04Z
2023-08-23T03:07:47Z,42.805,6.029,13.3080,4.60132,2470.67,2023-8-23T05:10:07Z
2023-08-23T03:10:50Z,42.805,6.029,13.3076,4.60137,2470.646,2023-8-23T05:13:10Z
2023-08-23T03:13:53Z,42.805,6.029,13.3056,4.60132,2470.67,2023-8-23T05:16:13Z
2023-08-23T03:16:56Z,42.805,6.029,13.3090,4.60132,2470.684,2023-8-23T05:19:16Z
2023-08-23T03:19:59Z,42.805,6.029,13.3093,4.60133,2470.646,2023-8-23T05:22:19Z
2023-08-23T03:23:02Z,42.805,6.029,13.3070,4.60125,2470.684,2023-8-23T05:25:22Z
2023-08-23T03:26:05Z,42.805,6.029,13.3066,4.60141,2470.646,2023-8-23T05:28:25Z
2023-08-23T03:29:08Z,42.805,6.029,13.3072,4.60124,2470.661,2023-8-23T05:31:28Z
2023-08-23T03:32:11Z,42.805,6.029,13.3073,4.60135,2470.637,2023-8-23T05:34:31Z
2023-08-23T03:35:15Z,42.805,6.029,13.3084,4.60128,2470.646,2023-8-23T05:37:35Z
2023-08-23T03:38:18Z,42.805,6.029,13.3090,4.60140,2470.637,2023-8-23T05:40:38Z
2023-08-23T03:41:21Z,42.805,6.029,13.3085,4.60127,2470.684,2023-8-23T05:43:41Z
2023-08-23T03:44:24Z,42.805,6.029,13.3073,4.60122,2470.624,2023-8-23T05:46:44Z
2023-08-23T03:47:27Z,42.805,6.029,13.3029,4.60115,2470.646,2023-8-23T05:49:47Z
2023-08-23T03:50:30Z,42.805,6.029,13.3030,4.60105,2470.661,2023-8-23T05:52:50Z
2023-08-23T03:53:33Z,42.805,6.029,13.3034,4.60110,2470.661,2023-8-23T05:55:53Z
2023-08-23T03:56:36Z,42.805,6.029,13.3031,4.60110,2470.646,2023-8-23T05:58:56Z
2023-08-23T03:59:39Z,42.805,6.029,13.3031,4.60106,2470.684,2023-8-23T06:01:59Z
2023-08-23T04:02:42Z,42.805,6.029,13.3034,4.60121,2470.661,2023-8-23T06:05:02Z
2023-08-23T04:05:45Z,42.805,6.029,13.3031,4.60119,2470.624,2023-8-23T06:08:05Z
2023-08-23T04:08:49Z,42.805,6.029,13.3032,4.60109,2470.67,2023-8-23T06:11:08Z
2023-08-23T04:11:52Z,42.805,6.029,13.3031,4.60114,2470.67,2023-8-23T06:14:12Z
2023-08-23T04:14:55Z,42.805,6.029,13.3030,4.60127,2470.67,2023-8-23T06:17:15Z
2023-08-23T04:17:58Z,42.805,6.029,13.3028,4.60113,2470.624,2023-8-23T06:20:18Z
2023-08-23T04:21:01Z,42.805,6.029,13.3032,4.60108,2470.646,2023-8-23T06:23:21Z
2023-08-23T04:24:04Z,42.805,6.029,13.3030,4.60102,2470.67,2023-8-23T06:26:24Z
2023-08-23T04:27:07Z,42.805,6.029,13.3032,4.60099,2470.67,2023-8-23T06:29:27Z
2023-08-23T04:30:10Z,42.805,6.029,13.3030,4.60099,2470.637,2023-8-23T06:32:30Z
2023-08-23T04:33:13Z,42.805,6.029,13.3030,4.60099,2470.637,2023-8-23T06:35:33Z
2023-08-23T04:36:16Z,42.805,6.029,13.3030,4.60101,2470.67,2023-8-23T06:38:36Z
2023-08-23T04:39:19Z,42.805,6.029,13.3031,4.60102,2470.67,2023-8-23T06:41:39Z
2023-08-23T04:42:22Z,42.805,6.029,13.3029,4.60107,2470.646,2023-8-23T06:44:42Z
2023-08-23T04:45:25Z,42.805,6.029,13.3033,4.60099,2470.661,2023-8-23T06:47:45Z
2023-08-23T04:48:29Z,42.805,6.029,13.3030,4.60106,2470.661,2023-8-23T06:50:49Z
2023-08-23T04:51:32Z,42.805,6.029,13.3029,4.60102,2470.646,2023-8-23T06:53:52Z
2023-08-23T04:54:35Z,42.805,6.029,13.3031,4.60104,2470.646,2023-8-23T06:56:55Z
2023-08-23T04:57:38Z,42.805,6.029,13.3027,4.60102,2470.646,2023-8-23T06:59:58Z
2023-08-23T05:00:41Z,42.805,6.029,13.3031,4.60103,2470.646,2023-8-23T07:03:01Z
2023-08-23T05:03:44Z,42.805,6.029,13.3031,4.60107,2470.646,2023-8-23T07:06:04Z
2023-08-23T05:06:47Z,42.805,6.029,13.3032,4.60106,2470.646,2023-8-23T07:09:07Z
2023-08-23T05:09:50Z,42.805,6.029,13.3028,4.60103,2470.646,2023-8-23T07:12:10Z
2023-08-23T05:12:53Z,42.805,6.029,13.3031,4.60104,2470.646,2023-8-23T07:15:13Z
2023-08-23T05:15:56Z,42.805,6.029,13.3030,4.60102,2470.646,2023-8-23T07:18:16Z
2023-08-23T05:18:59Z,42.805,6.029,13.3026,4.60099,2470.624,2023-8-23T07:21:19Z
2023-08-23T05:22:02Z,42.805,6.029,13.3034,4.60105,2470.637,2023-8-23T07:24:22Z
2023-08-23T05:25:06Z,42.805,6.029,13.3035,4.60100,2470.67,2023-8-23T07:27:26Z
2023-08-23T05:28:09Z,42.805,6.029,13.3031,4.60099,2470.624,2023-8-23T07:30:29Z
2023-08-23T05:31:12Z,42.805,6.029,13.3029,4.60099,2470.624,2023-8-23T07:33:32Z
2023-08-23T05:34:15Z,42.805,6.029,13.3030,4.60097,2470.646,2023-8-23T07:36:35Z
2023-08-23T05:37:18Z,42.805,6.029,13.3031,4.60103,2470.614,2023-8-23T07:39:38Z
2023-08-23T05:40:21Z,42.805,6.029,13.3031,4.60101,2470.637,2023-8-23T07:42:41Z
2023-08-23T05:43:24Z,42.805,6.029,13.3033,4.60099,2470.637,2023-8-23T07:45:44Z
2023-08-23T05:46:27Z,42.805,6.029,13.3033,4.60103,2470.624,2023-8-23T07:48:47Z
2023-08-23T05:49:30Z,42.805,6.029,13.3034,4.60102,2470.684,2023-8-23T07:51:50Z
2023-08-23T05:52:33Z,42.805,6.029,13.3031,4.60104,2470.67,2023-8-23T07:54:53Z
2023-08-23T05:55:36Z,42.805,6.029,13.3031,4.60113,2470.661,2023-8-23T07:57:56Z
2023-08-23T05:58:39Z,42.805,6.029,13.3032,4.60108,2470.624,2023-8-23T08:00:59Z
2023-08-23T06:01:43Z,42.805,6.029,13.3028,4.60103,2470.646,2023-8-23T08:04:03Z
2023-08-23T06:04:46Z,42.805,6.029,13.3033,4.60104,2470.646,2023-8-23T08:07:06Z
2023-08-23T06:07:49Z,42.805,6.029,13.3035,4.60111,2470.646,2023-8-23T08:10:09Z
2023-08-23T06:10:52Z,42.805,6.029,13.3032,4.60107,2470.624,2023-8-23T08:13:12Z
2023-08-23T06:13:55Z,42.805,6.029,13.3029,4.60104,2470.624,2023-8-23T08:16:15Z
2023-08-23T06:16:58Z,42.805,6.029,13.3030,4.60101,2470.661,2023-8-23T08:19:18Z
2023-08-23T06:20:01Z,42.805,6.029,13.3034,4.60106,2470.6,2023-8-23T08:22:21Z
2023-08-23T06:23:04Z,42.805,6.029,13.3035,4.60104,2470.661,2023-8-23T08:25:24Z
2023-08-23T06:26:07Z,42.805,6.029,13.3029,4.60106,2470.6,2023-8-23T08:28:27Z
2023-08-23T06:29:10Z,42.805,6.029,13.3032,4.60111,2470.646,2023-8-23T08:31:30Z
2023-08-23T06:32:12Z,42.805,6.029,13.3029,4.60104,2470.646,2023-8-23T08:34:32Z
2023-08-23T06:35:15Z,42.805,6.029,13.3031,4.60103,2470.646,2023-8-23T08:37:35Z
2023-08-23T06:38:18Z,42.805,6.029,13.3030,4.60101,2470.646,2023-8-23T08:40:38Z
2023-08-23T06:41:21Z,42.805,6.029,13.3031,4.60097,2470.624,2023-8-23T08:43:41Z
2023-08-23T06:44:24Z,42.805,6.029,13.3029,4.60107,2470.661,2023-8-23T08:46:44Z
2023-08-23T06:47:27Z,42.805,6.029,13.3038,4.60103,2470.661,2023-8-23T08:49:47Z
2023-08-23T06:50:30Z,42.805,6.029,13.3031,4.60117,2470.661,2023-8-23T08:52:50Z
2023-08-23T06:53:34Z,42.805,6.029,13.3033,4.60112,2470.624,2023-8-23T08:55:54Z
2023-08-23T06:56:37Z,42.805,6.029,13.3031,4.60112,2470.684,2023-8-23T08:58:57Z
2023-08-23T06:59:40Z,42.805,6.029,13.3029,4.60127,2470.61,2023-8-23T09:02:00Z
2023-08-23T07:02:43Z,42.805,6.029,13.3034,4.60113,2470.67,2023-8-23T09:05:03Z
2023-08-23T07:05:46Z,42.805,6.029,13.3029,4.60131,2470.637,2023-8-23T09:08:06Z
2023-08-23T07:08:49Z,42.805,6.029,13.3034,4.60125,2470.646,2023-8-23T09:11:09Z
2023-08-23T07:11:52Z,42.805,6.029,13.3028,4.60114,2470.67,2023-8-23T09:14:12Z
2023-08-23T07:14:55Z,42.805,6.029,13.3026,4.60117,2470.646,2023-8-23T09:17:15Z
2023-08-23T07:17:58Z,42.805,6.029,13.3029,4.60127,2470.661,2023-8-23T09:20:18Z
2023-08-23T07:21:01Z,42.805,6.029,13.3029,4.60139,2470.67,2023-8-23T09:23:21Z
2023-08-23T07:24:04Z,42.805,6.029,13.3033,4.60137,2470.684,2023-8-23T09:26:24Z
2023-08-23T07:27:07Z,42.805,6.029,13.3035,4.60142,2470.637,2023-8-23T09:29:27Z
2023-08-23T07:30:11Z,42.805,6.029,13.3029,4.60139,2470.661,2023-8-23T09:32:31Z
2023-08-23T07:33:14Z,42.805,6.029,13.3034,4.60137,2470.646,2023-8-23T09:35:34Z
2023-08-23T07:36:17Z,42.805,6.029,13.3030,4.60123,2470.684,2023-8-23T09:38:37Z
2023-08-23T07:39:20Z,42.805,6.029,13.3031,4.60120,2470.693,2023-8-23T09:41:40Z
2023-08-23T07:42:23Z,42.805,6.029,13.3034,4.60112,2470.661,2023-8-23T09:44:43Z
2023-08-23T07:45:26Z,42.805,6.029,13.3032,4.60128,2470.67,2023-8-23T09:47:46Z
2023-08-23T07:48:29Z,42.805,6.029,13.3031,4.60122,2470.67,2023-8-23T09:50:49Z
2023-08-23T07:51:32Z,42.805,6.029,13.3033,4.60144,2470.67,2023-8-23T09:53:52Z
2023-08-23T07:54:35Z,42.805,6.029,13.3036,4.60180,2470.646,2023-8-23T09:56:55Z
2023-08-23T07:57:38Z,42.805,6.029,13.3030,4.60195,2470.707,2023-8-23T09:59:58Z
2023-08-23T08:00:41Z,42.805,6.029,13.3031,4.60155,2470.67,2023-8-23T10:03:01Z
2023-08-23T08:03:44Z,42.805,6.029,13.3034,4.60197,2470.707,2023-8-23T10:06:04Z
2023-08-23T08:06:48Z,42.805,6.029,13.3035,4.60178,2470.656,2023-8-23T10:09:08Z
2023-08-23T08:09:51Z,42.805,6.029,13.3034,4.60165,2470.67,2023-8-23T10:12:11Z
2023-08-23T08:12:54Z,42.805,6.029,13.3032,4.60180,2470.707,2023-8-23T10:15:14Z
2023-08-23T08:15:57Z,42.805,6.029,13.3033,4.60204,2470.67,2023-8-23T10:18:17Z
2023-08-23T08:19:00Z,42.805,6.029,13.3037,4.60215,2470.73,2023-8-23T10:21:20Z
2023-08-23T08:22:03Z,42.805,6.029,13.3036,4.60222,2470.67,2023-8-23T10:24:23Z
2023-08-23T08:25:06Z,42.805,6.029,13.3035,4.60219,2470.661,2023-8-23T10:27:26Z
2023-08-23T08:28:09Z,42.805,6.029,13.3036,4.60223,2470.707,2023-8-23T10:30:29Z
2023-08-23T08:31:11Z,42.805,6.029,13.3041,4.60237,2470.707,2023-8-23T10:33:31Z
2023-08-23T08:34:14Z,42.805,6.029,13.3043,4.60232,2470.707,2023-8-23T10:36:34Z
2023-08-23T08:37:17Z,42.805,6.029,13.3042,4.60186,2470.707,2023-8-23T10:39:37Z
2023-08-23T08:40:20Z,42.805,6.029,13.3041,4.60173,2470.693,2023-8-23T10:42:40Z
2023-08-23T08:43:23Z,42.805,6.029,13.3047,4.60171,2470.693,2023-8-23T10:45:43Z
2023-08-23T08:46:26Z,42.805,6.029,13.3111,4.60160,2470.717,2023-8-23T10:48:46Z
2023-08-23T08:49:29Z,42.805,6.029,13.3126,4.60160,2470.707,2023-8-23T10:51:49Z
2023-08-23T08:52:32Z,42.805,6.029,13.3140,4.60147,2470.693,2023-8-23T10:54:52Z
2023-08-23T08:55:35Z,42.805,6.029,13.3123,4.60142,2470.707,2023-8-23T10:57:55Z
2023-08-23T08:58:38Z,42.805,6.029,13.3122,4.60137,2470.707,2023-8-23T11:00:58Z
2023-08-23T09:01:41Z,42.805,6.029,13.3119,4.60126,2470.717,2023-8-23T11:04:01Z
2023-08-23T09:04:45Z,42.805,6.029,13.3111,4.60130,2470.74,2023-8-23T11:07:05Z
2023-08-23T09:07:48Z,42.805,6.029,13.3110,4.60132,2470.717,2023-8-23T11:10:08Z
2023-08-23T09:10:51Z,42.805,6.029,13.3098,4.60122,2470.73,2023-8-23T11:13:11Z
2023-08-23T09:13:54Z,42.805,6.029,13.3100,4.60126,2470.754,2023-8-23T11:16:14Z
2023-08-23T09:16:57Z,42.805,6.029,13.3093,4.60128,2470.717,2023-8-23T11:19:17Z
2023-08-23T09:20:00Z,42.805,6.029,13.3096,4.60127,2470.717,2023-8-23T11:22:20Z
2023-08-23T09:23:03Z,42.805,6.029,13.3096,4.60128,2470.717,2023-8-23T11:25:23Z
2023-08-23T09:26:06Z,42.805,6.029,13.3101,4.60129,2470.707,2023-8-23T11:28:26Z
2023-08-23T09:29:09Z,42.805,6.029,13.3106,4.60129,2470.73,2023-8-23T11:31:29Z
2023-08-23T09:32:12Z,42.805,6.029,13.3104,4.60132,2470.73,2023-8-23T11:34:32Z
2023-08-23T09:35:15Z,42.805,6.029,13.3106,4.60137,2470.754,2023-8-23T11:37:35Z
2023-08-23T09:38:18Z,42.805,6.029,13.3093,4.60125,2470.717,2023-8-23T11:40:38Z
2023-08-23T09:41:22Z,42.805,6.029,13.3085,4.60125,2470.73,2023-8-23T11:43:42Z
2023-08-23T09:44:25Z,42.805,6.029,13.3089,4.60139,2470.73,2023-8-23T11:46:45Z
2023-08-23T09:47:28Z,42.805,6.029,13.3091,4.60159,2470.74,2023-8-23T11:49:48Z
2023-08-23T09:50:31Z,42.805,6.029,13.3092,4.60170,2470.73,2023-8-23T11:52:51Z
2023-08-23T09:53:34Z,42.805,6.029,13.3098,4.60177,2470.754,2023-8-23T11:55:54Z
2023-08-23T09:56:37Z,42.805,6.029,13.3085,4.60182,2470.777,2023-8-23T11:58:57Z
2023-08-23T09:59:40Z,42.805,6.029,13.3095,4.60155,2470.73,2023-8-23T12:02:00Z
2023-08-23T10:02:43Z,42.805,6.029,13.3083,4.60131,2470.717,2023-8-23T12:05:03Z
2023-08-23T10:05:46Z,42.805,6.029,13.3078,4.60148,2470.754,2023-8-23T12:08:06Z
2023-08-23T10:08:49Z,42.805,6.029,13.3088,4.60125,2470.73,2023-8-23T12:11:09Z
2023-08-23T10:11:52Z,42.805,6.029,13.3080,4.60139,2470.754,2023-8-23T12:14:12Z
2023-08-23T10:14:56Z,42.805,6.029,13.3098,4.60145,2470.73,2023-8-23T12:17:16Z
2023-08-23T10:17:59Z,42.805,6.029,13.3089,4.60146,2470.717,2023-8-23T12:20:19Z
2023-08-23T10:21:02Z,42.805,6.029,13.3099,4.60137,2470.717,2023-8-23T12:23:22Z
2023-08-23T10:24:05Z,42.805,6.029,13.3105,4.60157,2470.74,2023-8-23T12:26:25Z
2023-08-23T10:27:08Z,42.805,6.029,13.3098,4.60160,2470.717,2023-8-23T12:29:28Z
2023-08-23T10:30:09Z,42.805,6.029,13.3098,4.60162,2470.763,2023-8-23T12:32:29Z
2023-08-23T10:33:12Z,42.805,6.029,13.3095,4.60186,2470.754,2023-8-23T12:35:32Z
2023-08-23T10:36:15Z,42.805,6.029,13.3083,4.60179,2470.754,2023-8-23T12:38:35Z
2023-08-23T10:39:18Z,42.805,6.029,13.3090,4.60152,2470.777,2023-8-23T12:41:38Z
2023-08-23T10:42:22Z,42.805,6.029,13.3093,4.60188,2470.777,2023-8-23T12:44:42Z
2023-08-23T10:45:25Z,42.805,6.029,13.3099,4.60167,2470.717,2023-8-23T12:47:45Z
2023-08-23T10:48:28Z,42.805,6.029,13.3108,4.60137,2470.74,2023-8-23T12:50:48Z
2023-08-23T10:51:31Z,42.805,6.029,13.3089,4.60155,2470.763,2023-8-23T12:53:51Z
2023-08-23T10:54:34Z,42.805,6.029,13.3109,4.60173,2470.73,2023-8-23T12:56:54Z
2023-08-23T10:57:37Z,42.805,6.029,13.3081,4.60168,2470.763,2023-8-23T12:59:57Z
2023-08-23T11:00:40Z,42.805,6.029,13.3093,4.60127,2470.777,2023-8-23T13:03:00Z
2023-08-23T11:03:43Z,42.805,6.029,13.3085,4.60171,2470.726,2023-8-23T13:06:03Z
2023-08-23T11:06:46Z,42.805,6.029,13.3088,4.60158,2470.777,2023-8-23T13:09:06Z
2023-08-23T11:09:49Z,42.805,6.029,13.3118,4.60122,2470.777,2023-8-23T13:12:09Z
2023-08-23T11:12:52Z,42.805,6.029,13.3106,4.60158,2470.763,2023-8-23T13:15:12Z
2023-08-23T11:15:56Z,42.805,6.029,13.3085,4.60199,2470.8,2023-8-23T13:18:16Z
2023-08-23T11:18:59Z,42.805,6.029,13.3088,4.60175,2470.754,2023-8-23T13:21:19Z
2023-08-23T11:22:02Z,42.805,6.029,13.3080,4.60178,2470.754,2023-8-23T13:24:22Z
2023-08-23T11:25:05Z,42.805,6.029,13.3096,4.60170,2470.74,2023-8-23T13:27:25Z
2023-08-23T11:28:08Z,42.805,6.029,13.3108,4.60191,2470.777,2023-8-23T13:30:28Z
2023-08-23T11:31:11Z,42.805,6.029,13.3082,4.60160,2470.787,2023-8-23T13:33:31Z
2023-08-23T11:34:14Z,42.805,6.029,13.3101,4.60144,2470.787,2023-8-23T13:36:34Z
2023-08-23T11:37:17Z,42.805,6.029,13.3102,4.60135,2470.763,2023-8-23T13:39:37Z
2023-08-23T11:40:20Z,42.805,6.029,13.3097,4.60152,2470.763,2023-8-23T13:42:40Z
2023-08-23T11:43:23Z,42.805,6.029,13.3098,4.60190,2470.777,2023-8-23T13:45:43Z
2023-08-23T11:46:26Z,42.805,6.029,13.3069,4.60141,2470.763,2023-8-23T13:48:46Z
2023-08-23T11:49:30Z,42.805,6.029,13.3086,4.60185,2470.777,2023-8-23T13:51:50Z
2023-08-23T11:52:33Z,42.805,6.029,13.3088,4.60175,2470.8,2023-8-23T13:54:53Z
2023-08-23T11:55:36Z,42.805,6.029,13.3101,4.60181,2470.754,2023-8-23T13:57:56Z
2023-08-23T11:58:39Z,42.805,6.029,13.3098,4.60184,2470.74,2023-8-23T14:00:59Z
2023-08-23T12:01:42Z,42.805,6.029,13.3111,4.60175,2470.74,2023-8-23T14:04:02Z
2023-08-23T12:04:45Z,42.805,6.029,13.3084,4.60169,2470.726,2023-8-23T14:07:05Z
2023-08-23T12:07:48Z,42.805,6.029,13.3112,4.60155,2470.754,2023-8-23T14:10:08Z
2023-08-23T12:10:51Z,42.805,6.029,13.3099,4.60152,2470.754,2023-8-23T14:13:11Z
2023-08-23T12:13:54Z,42.805,6.029,13.3087,4.60167,2470.717,2023-8-23T14:16:14Z
2023-08-23T12:16:57Z,42.805,6.029,13.3098,4.60193,2470.763,2023-8-23T14:19:17Z
2023-08-23T12:20:00Z,42.805,6.029,13.3068,4.60200,2470.754,2023-8-23T14:22:20Z
2023-08-23T12:23:03Z,42.805,6.029,13.3110,4.60178,2470.74,2023-8-23T14:25:24Z
2023-08-23T12:26:07Z,42.805,6.029,13.3085,4.60213,2470.754,2023-8-23T14:28:27Z
2023-08-23T12:29:10Z,42.805,6.029,13.3082,4.60195,2470.777,2023-8-23T14:31:30Z
2023-08-23T12:32:13Z,42.805,6.029,13.3084,4.60155,2470.74,2023-8-23T14:34:33Z
2023-08-23T12:35:16Z,42.805,6.029,13.3075,4.60174,2470.74,2023-8-23T14:37:36Z
2023-08-23T12:38:19Z,42.805,6.029,13.3084,4.60173,2470.754,2023-8-23T14:40:39Z
2023-08-23T12:41:22Z,42.805,6.029,13.3080,4.60163,2470.73,2023-8-23T14:43:42Z
2023-08-23T12:44:25Z,42.805,6.029,13.3090,4.60184,2470.754,2023-8-23T14:46:45Z
2023-08-23T12:47:28Z,42.805,6.029,13.3098,4.60174,2470.754,2023-8-23T14:49:48Z
2023-08-23T12:50:31Z,42.805,6.029,13.3091,4.60170,2470.73,2023-8-23T14:52:51Z
2023-08-23T12:53:34Z,42.805,6.029,13.3106,4.60193,2470.74,2023-8-23T14:55:54Z
2023-08-23T12:56:37Z,42.805,6.029,13.3103,4.60197,2470.717,2023-8-23T14:58:57Z
2023-08-23T12:59:41Z,42.805,6.029,13.3104,4.60221,2470.754,2023-8-23T15:02:01Z
2023-08-23T13:02:44Z,42.805,6.029,13.3092,4.60126,2470.754,2023-8-23T15:05:04Z
2023-08-23T13:05:47Z,42.805,6.029,13.3063,4.60190,2470.763,2023-8-23T15:08:07Z
2023-08-23T13:08:50Z,42.805,6.029,13.3056,4.60208,2470.754,2023-8-23T15:11:10Z
2023-08-23T13:11:53Z,42.805,6.029,13.3088,4.60160,2470.73,2023-8-23T15:14:13Z
2023-08-23T13:14:56Z,42.805,6.029,13.3101,4.60156,2470.693,2023-8-23T15:17:16Z
2023-08-23T13:17:59Z,42.805,6.029,13.3091,4.60154,2470.717,2023-8-23T15:20:19Z
2023-08-23T13:21:02Z,42.805,6.029,13.3096,4.60181,2470.754,2023-8-23T15:23:22Z
2023-08-23T13:24:05Z,42.805,6.029,13.3113,4.60210,2470.754,2023-8-23T15:26:25Z
2023-08-23T13:27:08Z,42.805,6.029,13.3118,4.60170,2470.754,2023-8-23T15:29:28Z
2023-08-23T13:30:11Z,42.805,6.029,13.3115,4.60164,2470.754,2023-8-23T15:32:31Z
2023-08-23T13:33:15Z,42.805,6.029,13.3100,4.60174,2470.717,2023-8-23T15:35:35Z
2023-08-23T13:36:18Z,42.805,6.029,13.3078,4.60190,2470.73,2023-8-23T15:38:38Z
2023-08-23T13:39:21Z,42.805,6.029,13.3080,4.60183,2470.717,2023-8-23T15:41:41Z
2023-08-23T13:42:24Z,42.805,6.029,13.3076,4.60217,2470.693,2023-8-23T15:44:44Z
2023-08-23T13:45:27Z,42.805,6.029,13.3059,4.60186,2470.754,2023-8-23T15:47:47Z
2023-08-23T13:48:30Z,42.805,6.029,13.3066,4.60198,2470.73,2023-8-23T15:50:50Z
2023-08-23T13:51:33Z,42.805,6.029,13.3061,4.60201,2470.73,2023-8-23T15:53:53Z
2023-08-23T13:54:36Z,42.805,6.029,13.3082,4.60190,2470.73,2023-8-23T15:56:56Z
2023-08-23T13:57:39Z,42.805,6.029,13.3097,4.60156,2470.679,2023-8-23T15:59:59Z
2023-08-23T14:00:42Z,42.805,6.029,13.3091,4.60178,2470.717,2023-8-23T16:03:02Z
2023-08-23T14:03:45Z,42.805,6.029,13.3098,4.60187,2470.73,2023-8-23T16:06:05Z
2023-08-23T14:06:48Z,42.805,6.029,13.3092,4.60172,2470.717,2023-8-23T16:09:09Z
2023-08-23T14:09:52Z,42.805,6.029,13.3054,4.60175,2470.707,2023-8-23T16:12:12Z
2023-08-23T14:12:55Z,42.805,6.029,13.3072,4.60178,2470.717,2023-8-23T16:15:15Z
2023-08-23T14:15:58Z,42.805,6.029,13.3081,4.60145,2470.693,2023-8-23T16:18:18Z
2023-08-23T14:19:01Z,42.805,6.029,13.3083,4.60190,2470.707,2023-8-23T16:21:21Z
2023-08-23T14:22:04Z,42.805,6.029,13.3075,4.60204,2470.693,2023-8-23T16:24:24Z
2023-08-23T14:25:07Z,42.805,6.029,13.3077,4.60178,2470.707,2023-8-23T16:27:27Z
2023-08-23T14:28:10Z,42.805,6.029,13.3101,4.60156,2470.717,2023-8-23T16:30:30Z
2023-08-23T14:31:12Z,42.805,6.029,13.3094,4.60266,2470.693,2023-8-23T16:33:32Z
2023-08-23T14:34:15Z,42.805,6.029,13.3091,4.60156,2470.754,2023-8-23T16:36:35Z
2023-08-23T14:37:18Z,42.805,6.029,13.3082,4.60160,2470.717,2023-8-23T16:39:38Z
2023-08-23T14:40:21Z,42.805,6.029,13.3091,4.60143,2470.693,2023-8-23T16:42:41Z
2023-08-23T14:43:24Z,42.805,6.029,13.3101,4.60153,2470.74,2023-8-23T16:45:44Z
2023-08-23T14:46:27Z,42.805,6.029,13.3085,4.60139,2470.693,2023-8-23T16:48:47Z
2023-08-23T14:49:30Z,42.805,6.029,13.3082,4.60148,2470.67,2023-8-23T16:51:50Z
2023-08-23T14:52:34Z,42.805,6.029,13.3085,4.60135,2470.73,2023-8-23T16:54:54Z
2023-08-23T14:55:37Z,42.805,6.029,13.3090,4.60130,2470.73,2023-8-23T16:57:57Z
2023-08-23T14:58:40Z,42.805,6.029,13.3077,4.60138,2470.73,2023-8-23T17:01:00Z
2023-08-23T15:01:43Z,42.805,6.029,13.3070,4.60143,2470.73,2023-8-23T17:04:03Z
2023-08-23T15:04:46Z,42.805,6.029,13.3071,4.60129,2470.73,2023-8-23T17:07:06Z
2023-08-23T15:07:49Z,42.805,6.029,13.3074,4.60150,2470.717,2023-8-23T17:10:09Z
2023-08-23T15:10:52Z,42.805,6.029,13.3078,4.60150,2470.67,2023-8-23T17:13:12Z
2023-08-23T15:13:55Z,42.805,6.029,13.3073,4.60108,2470.707,2023-8-23T17:16:15Z